| time (UTC) | temp C | wind direction | speed KPH | gust KPH | rain 1hr cm | rain 24hr cm | rain mn cm | humidity % | barometer mb |
| 20260905095203 | 15 | 360 | 0.0 | 0.0 | 0.00 | 0.00 | 0.00 | 93 | 1013.5 |
| 20260905094204 | 15 | 360 | 0.0 | 0.0 | 0.00 | 0.00 | 0.00 | 93 | 1013.3 |
| 20260905093203 | 15 | 360 | 0.0 | 0.0 | 0.00 | 0.00 | 0.00 | 93 | 1013.3 |
| 20260905092204 | 15 | 360 | 0.0 | 0.0 | 0.00 | 0.00 | 0.00 | 93 | 1013.1 |
| 20260905091203 | 15 | 360 | 0.0 | 0.0 | 0.00 | 0.00 | 0.00 | 93 | 1013.1 |
| 20260905090204 | 15 | 360 | 0.0 | 0.0 | 0.00 | 0.00 | 0.00 | 93 | 1012.8 |
| 20260905085203 | 15 | 360 | 0.0 | 0.0 | 0.00 | 0.00 | 0.00 | 93 | 1012.9 |
| 20260905084205 | 16 | 360 | 0.0 | 0.0 | 0.00 | 0.00 | 0.00 | 93 | 1012.6 |
| 20260905083205 | 16 | 360 | 0.0 | 0.0 | 0.00 | 0.00 | 0.00 | 93 | 1012.7 |
| 20260905082206 | 16 | 360 | 0.0 | 0.0 | 0.00 | 0.00 | 0.00 | 93 | 1012.5 |
| 20260905081205 | 16 | 360 | 0.0 | 0.0 | 0.00 | 0.00 | 0.00 | 93 | 1012.6 |
| 20260905080203 | 16 | 360 | 0.0 | 0.0 | 0.00 | 0.00 | 0.00 | 93 | 1012.6 |
| 20260905075204 | 16 | 360 | 0.0 | 0.0 | 0.00 | 0.00 | 0.00 | 93 | 1012.7 |
| 20260905074203 | 16 | 360 | 0.0 | 0.0 | 0.00 | 0.00 | 0.00 | 93 | 1012.8 |
| 20260905073227 | 16 | 360 | 0.0 | 0.0 | 0.00 | 0.00 | 0.00 | 93 | 1012.8 |
| 20260905072206 | 16 | 360 | 0.0 | 0.0 | 0.00 | 0.00 | 0.00 | 92 | 1012.9 |
| 20260905071204 | 16 | 360 | 0.0 | 0.0 | 0.00 | 0.00 | 0.00 | 93 | 1012.9 |
| 20260905070204 | 16 | 360 | 0.0 | 0.0 | 0.00 | 0.00 | 0.00 | 92 | 1013.0 |
| 20260905065205 | 16 | 360 | 0.0 | 0.0 | 0.00 | 0.00 | 0.00 | 92 | 1013.1 |
| 20260905064204 | 16 | 360 | 0.0 | 0.0 | 0.00 | 0.00 | 0.00 | 92 | 1013.1 |
| 20260905063204 | 16 | 360 | 0.0 | 0.0 | 0.00 | 0.00 | 0.00 | 92 | 1013.1 |
| 20260905062224 | 16 | 360 | 0.0 | 0.0 | 0.00 | 0.00 | 0.00 | 92 | 1013.2 |
| 20260905061204 | 16 | 360 | 0.0 | 0.0 | 0.00 | 0.00 | 0.00 | 91 | 1013.3 |
| 20260905060203 | 16 | 360 | 0.0 | 0.0 | 0.00 | 0.00 | 0.00 | 91 | 1013.3 |
| 20260905055226 | 16 | 360 | 0.0 | 0.0 | 0.00 | 0.00 | 0.00 | 91 | 1013.4 |
| 20260905054204 | 16 | 360 | 0.0 | 0.0 | 0.00 | 0.00 | 0.00 | 91 | 1013.4 |
| 20260905053205 | 17 | 360 | 0.0 | 0.0 | 0.00 | 0.00 | 0.00 | 91 | 1013.3 |
| 20260905052204 | 17 | 360 | 0.0 | 0.0 | 0.00 | 0.00 | 0.00 | 91 | 1013.4 |
| 20260905051226 | 17 | 360 | 0.0 | 0.0 | 0.00 | 0.00 | 0.00 | 90 | 1013.4 |
| 20260905050204 | 17 | 360 | 0.0 | 0.0 | 0.00 | 0.00 | 0.00 | 90 | 1013.4 |
| 20260905045203 | 17 | 360 | 0.0 | 0.0 | 0.00 | 0.00 | 0.00 | 90 | 1013.3 |
| 20260905044203 | 17 | 360 | 0.0 | 0.0 | 0.00 | 0.00 | 0.00 | 90 | 1013.4 |
| 20260905043205 | 17 | 360 | 0.0 | 0.0 | 0.00 | 0.00 | 0.00 | 90 | 1013.5 |
| 20260905042204 | 17 | 360 | 0.0 | 0.0 | 0.00 | 0.00 | 0.00 | 89 | 1013.4 |
| 20260905041226 | 18 | 360 | 0.0 | 0.0 | 0.00 | 0.00 | 0.00 | 89 | 1013.4 |
| 20260905040203 | 18 | 360 | 0.0 | 0.0 | 0.00 | 0.00 | 0.00 | 89 | 1013.4 |
| 20260905035204 | 18 | 360 | 0.0 | 0.0 | 0.00 | 0.00 | 0.00 | 89 | 1013.4 |
| 20260905034205 | 18 | 360 | 0.0 | 0.0 | 0.00 | 0.00 | 0.00 | 88 | 1013.5 |
| 20260905033204 | 18 | 360 | 0.0 | 0.0 | 0.00 | 0.00 | 0.00 | 88 | 1013.4 |
| 20260905032203 | 18 | 360 | 0.0 | 0.0 | 0.00 | 0.00 | 0.00 | 88 | 1013.4 |
| 20260905031204 | 18 | 360 | 0.0 | 0.0 | 0.00 | 0.00 | 0.00 | 88 | 1013.2 |
| 20260905030204 | 18 | 360 | 0.0 | 0.0 | 0.00 | 0.00 | 0.00 | 87 | 1013.3 |
| 20260905025204 | 19 | 360 | 0.0 | 0.0 | 0.00 | 0.00 | 0.00 | 87 | 1013.3 |
| 20260905024205 | 19 | 360 | 0.0 | 0.0 | 0.00 | 0.00 | 0.00 | 87 | 1013.3 |
| 20260905023224 | 20 | 360 | 0.0 | 0.0 | 0.00 | 0.00 | 0.00 | 86 | 1013.4 |
| 20260905022205 | 20 | 360 | 0.0 | 0.0 | 0.00 | 0.00 | 0.00 | 86 | 1013.3 |
| 20260905021204 | 20 | 360 | 0.0 | 0.0 | 0.00 | 0.00 | 0.00 | 85 | 1013.3 |
| 20260905020204 | 20 | 360 | 0.0 | 0.0 | 0.00 | 0.00 | 0.00 | 85 | 1013.3 |
| 20260905015203 | 20 | 360 | 0.0 | 0.0 | 0.00 | 0.00 | 0.00 | 85 | 1013.3 |
| 20260905014225 | 20 | 360 | 0.0 | 0.0 | 0.00 | 0.00 | 0.00 | 85 | 1013.3 |
| 20260905013204 | 21 | 360 | 0.0 | 0.0 | 0.00 | 0.00 | 0.00 | 85 | 1013.4 |
| 20260905012203 | 21 | 360 | 0.0 | 0.0 | 0.00 | 0.00 | 0.00 | 85 | 1013.4 |
| 20260905011205 | 21 | 360 | 0.0 | 0.0 | 0.00 | 0.00 | 0.00 | 85 | 1013.5 |
| 20260905010205 | 21 | 360 | 0.0 | 0.0 | 0.00 | 0.00 | 0.00 | 84 | 1013.5 |
| 20260905005203 | 21 | 360 | 0.0 | 0.0 | 0.00 | 0.00 | 0.00 | 84 | 1013.4 |
| 20260905004204 | 21 | 360 | 0.0 | 0.0 | 0.00 | 0.00 | 0.00 | 84 | 1013.4 |
| 20260905003203 | 21 | 360 | 0.0 | 0.0 | 0.00 | 0.00 | 0.00 | 83 | 1013.3 |
| 20260905001226 | 21 | 360 | 0.0 | 0.0 | 0.00 | 0.05 | 0.00 | 83 | 1013.0 |
| 20260905000204 | 21 | 360 | 0.0 | 0.0 | 0.00 | 0.08 | 0.00 | 82 | 1012.9 |
| 20260904235203 | 22 | 360 | 0.0 | 0.0 | 0.00 | 0.13 | 0.00 | 80 | 1012.9 |
| 20260904234227 | 22 | 360 | 0.0 | 0.0 | 0.00 | 0.84 | 0.00 | 80 | 1012.9 |
| 20260904233205 | 22 | 360 | 0.0 | 0.0 | 0.00 | 1.14 | 0.00 | 78 | 1012.8 |
| 20260904232225 | 22 | 360 | 0.0 | 0.0 | 0.00 | 1.14 | 0.00 | 77 | 1012.9 |
| 20260904231203 | 22 | 360 | 0.0 | 0.0 | 0.00 | 1.14 | 0.00 | 77 | 1012.9 |
| 20260904230225 | 22 | 360 | 0.0 | 0.0 | 0.00 | 1.14 | 0.00 | 76 | 1012.8 |
| 20260904225224 | 23 | 360 | 0.0 | 0.0 | 0.00 | 1.14 | 0.00 | 76 | 1012.7 |
| 20260904224205 | 23 | 360 | 0.0 | 0.0 | 0.00 | 1.14 | 0.00 | 75 | 1012.5 |
| 20260904223226 | 23 | 360 | 0.0 | 0.0 | 0.00 | 1.14 | 0.00 | 75 | 1012.4 |
| 20260904222203 | 23 | 360 | 0.0 | 0.0 | 0.00 | 1.14 | 0.00 | 76 | 1012.3 |
| 20260904221226 | 23 | 360 | 0.0 | 3.2 | 0.00 | 1.14 | 0.00 | 76 | 1012.2 |
| 20260904220204 | 23 | 359 | 0.0 | 4.8 | 0.00 | 1.14 | 0.00 | 74 | 1012.1 |
| 20260904215203 | 23 | 360 | 0.0 | 1.6 | 0.00 | 1.14 | 0.00 | 75 | 1011.9 |
| 20260904214226 | 23 | 360 | 0.0 | 6.4 | 0.00 | 1.14 | 0.00 | 74 | 1011.8 |
| 20260904213204 | 23 | 360 | 0.0 | 0.0 | 0.00 | 1.14 | 0.00 | 74 | 1012.0 |
| 20260904212203 | 23 | 360 | 0.0 | 0.0 | 0.00 | 1.14 | 0.00 | 75 | 1012.0 |
| 20260904211203 | 23 | 360 | 0.0 | 0.0 | 0.00 | 1.14 | 0.00 | 74 | 1012.1 |
| 20260904210225 | 23 | 360 | 0.0 | 3.2 | 0.00 | 1.14 | 0.00 | 73 | 1012.3 |
| 20260904205204 | 23 | 359 | 0.0 | 6.4 | 0.00 | 1.14 | 0.00 | 74 | 1012.4 |
| 20260904204224 | 23 | 359 | 1.6 | 6.4 | 0.00 | 1.14 | 0.00 | 72 | 1012.5 |
| 20260904203225 | 23 | 359 | 1.6 | 9.7 | 0.00 | 1.14 | 0.00 | 72 | 1012.5 |
| 20260904202203 | 24 | 359 | 0.0 | 6.4 | 0.00 | 1.14 | 0.00 | 72 | 1012.6 |
| 20260904201205 | 24 | 356 | 3.2 | 8.0 | 0.00 | 1.14 | 0.00 | 71 | 1012.8 |
| 20260904200204 | 25 | 359 | 4.8 | 12.9 | 0.00 | 1.14 | 0.00 | 70 | 1012.7 |
| 20260904195224 | 25 | 359 | 1.6 | 6.4 | 0.00 | 1.14 | 0.00 | 71 | 1012.9 |
| 20260904194204 | 24 | 359 | 1.6 | 6.4 | 0.00 | 1.14 | 0.00 | 70 | 1012.9 |
| 20260904193205 | 25 | 357 | 3.2 | 9.7 | 0.00 | 1.14 | 0.00 | 71 | 1013.2 |
| 20260904192208 | 25 | 359 | 1.6 | 6.4 | 0.00 | 1.14 | 0.00 | 72 | 1013.2 |
| 20260904191204 | 24 | 359 | 1.6 | 8.0 | 0.00 | 1.14 | 0.00 | 73 | 1013.4 |
| 20260904190203 | 24 | 359 | 1.6 | 6.4 | 0.00 | 1.14 | 0.00 | 73 | 1013.5 |
| 20260904184203 | 23 | 357 | 3.2 | 8.0 | 0.00 | 1.14 | 0.00 | 74 | 1013.9 |
| 20260904183205 | 23 | 358 | 3.2 | 8.0 | 0.00 | 1.14 | 0.00 | 74 | 1014.0 |
| 20260904182204 | 24 | 359 | 3.2 | 8.0 | 0.00 | 1.14 | 0.00 | 73 | 1013.9 |
| 20260904181204 | 24 | 359 | 0.0 | 6.4 | 0.00 | 1.14 | 0.00 | 74 | 1013.9 |
| 20260904180224 | 24 | 359 | 3.2 | 12.9 | 0.00 | 1.14 | 0.00 | 72 | 1013.9 |
| 20260904175226 | 25 | 359 | 4.8 | 6.4 | 0.00 | 1.14 | 0.00 | 72 | 1013.9 |
| 20260904174205 | 25 | 359 | 3.2 | 9.7 | 0.00 | 1.14 | 0.00 | 73 | 1013.8 |
| 20260904173204 | 25 | 359 | 4.8 | 14.5 | 0.00 | 1.14 | 0.00 | 72 | 1014.0 |
| 20260904172228 | 24 | 356 | 4.8 | 9.7 | 0.00 | 1.14 | 0.00 | 73 | 1014.2 |
| 20260904171225 | 24 | 358 | 6.4 | 14.5 | 0.00 | 1.14 | 0.00 | 73 | 1014.3 |
| 20260904170205 | 24 | 359 | 0.0 | 8.0 | 0.00 | 1.14 | 0.00 | 69 | 1014.4 |
| 20260904165204 | 25 | 359 | 3.2 | 14.5 | 0.00 | 1.14 | 0.00 | 68 | 1014.5 |
| 20260904164204 | 25 | 359 | 3.2 | 16.1 | 0.00 | 1.14 | 0.00 | 71 | 1014.6 |
| 20260904163204 | 24 | 358 | 9.7 | 17.7 | 0.00 | 1.14 | 0.00 | 71 | 1014.8 |
| 20260904162226 | 24 | 359 | 4.8 | 9.7 | 0.00 | 1.14 | 0.00 | 75 | 1014.8 |
| 20260904161204 | 23 | 359 | 0.0 | 8.0 | 0.00 | 1.14 | 0.00 | 76 | 1014.9 |
| 20260904160225 | 23 | 359 | 0.0 | 6.4 | 0.00 | 1.14 | 0.00 | 77 | 1015.0 |
| 20260904155203 | 22 | 359 | 1.6 | 12.9 | 0.00 | 1.14 | 0.00 | 76 | 1014.9 |
| 20260904154204 | 22 | 359 | 4.8 | 9.7 | 0.00 | 1.14 | 0.00 | 78 | 1014.6 |
| 20260904153203 | 22 | 359 | 1.6 | 8.0 | 0.00 | 1.14 | 0.00 | 82 | 1014.5 |
| 20260904152204 | 21 | 359 | 0.0 | 9.7 | 0.00 | 1.14 | 0.00 | 86 | 1014.5 |
| 20260904151203 | 20 | 359 | 4.8 | 9.7 | 0.00 | 1.14 | 0.00 | 90 | 1014.4 |
| 20260904150204 | 20 | 359 | 0.0 | 9.7 | 0.00 | 1.14 | 0.00 | 92 | 1014.6 |
| 20260904145203 | 20 | 329 | 0.0 | 6.4 | 0.00 | 1.14 | 0.00 | 93 | 1014.7 |
| 20260904144203 | 20 | 359 | 0.0 | 4.8 | 0.00 | 1.14 | 0.00 | 93 | 1014.7 |
| 20260904143203 | 19 | 359 | 0.0 | 4.8 | 0.00 | 1.14 | 0.00 | 94 | 1014.4 |
| 20260904142203 | 19 | 359 | 3.2 | 6.4 | 0.00 | 1.14 | 0.00 | 94 | 1014.2 |
| 20260904141205 | 19 | 359 | 1.6 | 9.7 | 0.00 | 1.14 | 0.00 | 95 | 1014.2 |
| 20260904140205 | 19 | 360 | 0.0 | 0.0 | 0.00 | 1.14 | 0.00 | 95 | 1014.3 |
| 20260904135203 | 18 | 360 | 0.0 | 0.0 | 0.00 | 1.14 | 0.00 | 95 | 1014.5 |
| 20260904134204 | 18 | 360 | 0.0 | 3.2 | 0.00 | 1.14 | 0.00 | 95 | 1014.6 |
| 20260904133203 | 19 | 359 | 1.6 | 3.2 | 0.00 | 1.14 | 0.00 | 95 | 1014.6 |
| 20260904132227 | 18 | 360 | 0.0 | 3.2 | 0.00 | 1.14 | 0.00 | 95 | 1014.7 |
| 20260904131204 | 18 | 359 | 0.0 | 3.2 | 0.00 | 1.14 | 0.00 | 96 | 1014.8 |
| 20260904130224 | 18 | 359 | 0.0 | 3.2 | 0.00 | 1.14 | 0.00 | 96 | 1014.8 |
| 20260904125204 | 18 | 359 | 1.6 | 3.2 | 0.00 | 1.14 | 0.00 | 95 | 1014.7 |
| 20260904124204 | 18 | 360 | 0.0 | 1.6 | 0.00 | 1.14 | 0.00 | 96 | 1014.7 |
| 20260904123204 | 18 | 359 | 1.6 | 3.2 | 0.00 | 1.14 | 0.00 | 96 | 1014.8 |
| 20260904122226 | 18 | 359 | 0.0 | 1.6 | 0.00 | 1.14 | 0.00 | 96 | 1014.7 |
| 20260904121203 | 18 | 360 | 0.0 | 0.0 | 0.00 | 1.14 | 0.00 | 96 | 1014.5 |
| 20260904120203 | 18 | 360 | 0.0 | 0.0 | 0.00 | 1.14 | 0.00 | 96 | 1014.5 |
| 20260904115204 | 18 | 360 | 0.0 | 0.0 | 0.00 | 1.14 | 0.00 | 95 | 1014.5 |
| 20260904114203 | 18 | 360 | 0.0 | 0.0 | 0.00 | 1.14 | 0.00 | 95 | 1014.4 |
| 20260904113206 | 17 | 360 | 0.0 | 0.0 | 0.00 | 1.14 | 0.00 | 95 | 1014.3 |
| 20260904112204 | 17 | 360 | 0.0 | 0.0 | 0.00 | 1.14 | 0.00 | 95 | 1014.0 |
| 20260904111203 | 17 | 360 | 0.0 | 0.0 | 0.00 | 1.14 | 0.00 | 95 | 1014.0 |
| 20260904110205 | 17 | 360 | 0.0 | 0.0 | 0.00 | 1.14 | 0.00 | 95 | 1013.9 |
| 20260904105204 | 17 | 360 | 0.0 | 0.0 | 0.00 | 1.14 | 0.00 | 95 | 1014.0 |
| 20260904104203 | 18 | 360 | 0.0 | 0.0 | 0.00 | 1.14 | 0.00 | 95 | 1013.9 |
| 20260904103207 | 18 | 360 | 0.0 | 0.0 | 0.00 | 1.14 | 0.00 | 95 | 1013.9 |
| 20260904102204 | 18 | 360 | 0.0 | 0.0 | 0.00 | 1.14 | 0.00 | 95 | 1013.8 |
| 20260904101203 | 18 | 360 | 0.0 | 0.0 | 0.00 | 1.14 | 0.00 | 95 | 1014.0 |
| 20260904100205 | 18 | 360 | 0.0 | 0.0 | 0.00 | 1.14 | 0.00 | 95 | 1013.8 |